Location: Le Gr�zie
(43.6000°N, 13.5000°E)
Time: 13:10:16
(UTC+00:00)

Cosmos 2181 Rocket - Pass Details

Date: 09 April 2020
Orbit: 952 x 1014 km, 82.9° (Epoch: 26 May)

Event Time Altitude Azimuth Distance (km) Brightness Sun altitude
Exits shadow 19:28:02 - 177° (S) 2,849 6.1 -18.5°
Reaches altitude 10° 19:28:21 10° 177° (S) 2,727 6.0 -18.6°
Maximum altitude 19:34:33 71° 94° (E) 1,025 3.9 -19.5°
Drops below altitude 10° 19:40:42 10° 12° (NNE) 2,706 6.6 -20.4°
Sets 19:43:12 0° 11° (N) 3,650 7.3 -20.8°
